DW0683 Weather Reports


Display with metric or nautical units.
time (UTC)temp
F
wind
direction
speed
MPH
gust
MPH
rain 1hr
in
rain 24hr
in
rain mn
in
humidity
%
barometer
mb
20260901043818 76 56 0.0 0.0 0.00 0.00 0.00 42 1016.9
20260901040817 76 56 0.0 0.0 0.00 0.00 0.00 41 1016.9
20260901033829 77 56 0.0 0.0 0.00 0.00 0.00 41 1017.0
20260901030838 77 56 0.0 0.0 0.00 0.00 0.00 41 1017.0
20260901023836 77 57 0.0 2.0 0.00 0.00 0.00 41 1016.9
20260901020848 77 64 0.0 2.0 0.00 0.00 0.00 41 1016.9
20260901013836 78 64 0.0 1.0 0.00 0.00 0.00 42 1016.7
20260901010821 78 65 0.0 2.0 0.00 0.00 0.00 42 1016.5
20260901003820 78 65 0.0 2.0 0.00 0.00 0.00 45 1016.3
20260901000824 78 26 2.0 5.0 0.00 0.00 0.00 47 1016.3
20260831233836 79 32 3.0 8.0 0.00 0.00 0.00 50 1016.4
20260831230821 80 5 7.0 12.0 0.00 0.02 0.00 55 1016.8
20260831223841 81 52 3.0 14.0 0.00 0.02 0.00 56 1016.3
20260831220826 82 11 3.0 14.0 0.00 0.04 0.00 58 1016.2
20260831213838 87 34 3.0 9.0 0.00 0.04 0.00 54 1014.8
20260831210829 86 17 3.0 6.0 0.00 1.03 0.00 54 1015.2
20260831203815 85 20 3.0 9.0 0.00 1.03 0.00 55 1015.5
20260831200827 87 325 2.0 4.0 0.00 1.03 0.00 55 1015.5
20260831193841 86 327 2.0 11.0 0.00 1.03 0.00 56 1015.6
20260831190832 89 290 3.0 7.0 0.00 1.03 0.00 54 1015.5
20260831183834 91 313 2.0 4.0 0.00 1.03 0.00 51 1015.8
20260831180829 91 161 1.0 5.0 0.00 1.03 0.00 50 1016.1
20260831173856 90 175 1.0 5.0 0.00 1.03 0.00 47 1016.5
20260831170817 90 156 2.0 5.0 0.00 1.03 0.00 42 1016.9
20260831163825 89 23 1.0 6.0 0.00 1.03 0.00 33 1017.5
20260831160855 89 119 3.0 6.0 0.00 1.03 0.00 35 1017.5
20260831153822 88 107 1.0 6.0 0.00 1.03 0.00 36 1017.9
20260831150838 88 101 1.0 6.0 0.00 1.03 0.00 38 1017.5
20260831143817 86 92 0.0 3.0 0.00 1.03 0.00 43 1017.5
20260831140831 85 49 1.0 3.0 0.00 1.03 0.00 42 1017.3
20260831133837 83 17 2.0 5.0 0.00 1.03 0.00 46 1017.2